PROGRESS-MS 12 (44455 NORAD) Tracking and Keplerian Element Data

This shows tracking and keplerian element data for the satellite.

Feedback or suggestion? Click here.




ElementValue
Catalog44455
NamePROGRESS-MS 12
Epoch Orbit19454
Epoch Day292.49385634
Epoch Year2019
RAAN104.8809
Inclination51.6431
Eccentricity0.0006964
Argument of Perigee163.811
Mean Anonmoly236.5893
Mean Motion15.5020313
Decay Rate8.3E-07
L11 44455U 19047A 19292.49385634 .00000083 00000-0 94507-5 0 9999
L22 44455 51.6431 104.8809 0006964 163.8110 236.5893 15.50203130194548

Live tracking and technical data element details for PROGRESS-MS 12 (NORAD 44455). PROGRESS-MS 12 can be tracked NOW for your location showing map with azimuth and elevation plus other details from your city location.

Track the satellite on the map from your city or location and see movement details for azimuth, elevation, latitude, longitude, range, height, and movement on the map or in text.







IsCatalogInMostPopularTable: catalog: 44455, numindb: 22
Update: records affected: 1



GetName: 44455 PROGRESS-MS 12

Hit Count: updated at: Wed, 23 Oct 2019 00:06:02 GMT